User: anonymous
Location: Ithaca
(42.4410°N, 76.4970°W)
Time: 17:00:56
(UTC-04:00)
Language:

Cosmos 1271 Rocket - Orbit

View from above orbital plane
View from above orbital plane
View from above satellite
View from above satellite

Ground track
Ground track

The orbit data is extracted from the following two-line orbital elements,

1 12465U 81046B   14244.13207924  .00002355  00000-0  14105-3 0  3218
2 12465 081.2319 113.9647 0037498 123.1881 237.2950 15.10023696813250
Epoch (UTC): 01 September 2014 03:10:11
Eccentricity: 0.0037498
inclination: 81.2319°
perigee height: 510 km
apogee height: 562 km
right ascension of ascending node: 113.9647°
argument of perigee: 123.1881°
revolutions per day: 15.10023696
mean anomaly at epoch: 237.2950°
orbit number at epoch: 81325

The dashed part of the orbit path shows where the satellite is in the earth's shadow,  

DLR